| time (UTC) | temp C | wind direction | speed KPH | gust KPH | rain 1hr cm | rain 24hr cm | rain mn cm | humidity % | barometer mb |
| 20260903202536 | 11 | 0 | 0.0 | 0.0 | 0.00 | 0.00 | 0.00 | 86 | 1004.0 |
| 20260903202034 | 11 | 0 | 0.0 | 0.0 | 0.00 | 0.00 | 0.00 | 85 | 1004.0 |
| 20260903201548 | 11 | 0 | 0.0 | 0.0 | 0.00 | 0.00 | 0.00 | 85 | 1004.0 |
| 20260903201037 | 11 | 0 | 0.0 | 0.0 | 0.00 | 0.00 | 0.00 | 85 | 1004.2 |
| 20260903200531 | 11 | 0 | 0.0 | 0.0 | 0.00 | 0.00 | 0.00 | 85 | 1004.4 |
| 20260903200054 | 11 | 0 | 0.0 | 0.0 | 0.00 | 0.00 | 0.00 | 84 | 1004.5 |
| 20260903195532 | 11 | 0 | 0.0 | 0.0 | 0.00 | 0.00 | 0.00 | 83 | 1004.5 |
| 20260903195034 | 11 | 0 | 0.0 | 0.0 | 0.00 | 0.00 | 0.00 | 83 | 1004.5 |
| 20260903194552 | 11 | 0 | 0.0 | 0.0 | 0.00 | 0.00 | 0.00 | 83 | 1004.5 |
| 20260903194033 | 11 | 0 | 0.0 | 0.0 | 0.00 | 0.00 | 0.00 | 82 | 1004.6 |
| 20260903193531 | 12 | 0 | 0.0 | 1.6 | 0.00 | 0.00 | 0.00 | 82 | 1004.5 |
| 20260903193048 | 12 | 0 | 0.0 | 1.6 | 0.00 | 0.00 | 0.00 | 82 | 1004.5 |
| 20260903192534 | 12 | 0 | 0.0 | 1.6 | 0.00 | 0.00 | 0.00 | 82 | 1004.5 |
| 20260903192033 | 12 | 94 | 0.0 | 1.6 | 0.00 | 0.00 | 0.00 | 82 | 1004.5 |
| 20260903191601 | 12 | 94 | 0.0 | 3.2 | 0.00 | 0.00 | 0.00 | 81 | 1004.5 |
| 20260903191032 | 12 | 0 | 0.0 | 3.2 | 0.00 | 0.00 | 0.00 | 81 | 1004.6 |
| 20260903190532 | 12 | 158 | 0.0 | 3.2 | 0.00 | 0.00 | 0.00 | 81 | 1004.4 |
| 20260903190053 | 12 | 160 | 0.0 | 3.2 | 0.00 | 0.00 | 0.00 | 80 | 1004.5 |
| 20260903185532 | 12 | 0 | 0.0 | 1.6 | 0.00 | 0.00 | 0.00 | 80 | 1004.5 |
| 20260903185032 | 12 | 158 | 0.0 | 1.6 | 0.00 | 0.00 | 0.00 | 79 | 1004.6 |
| 20260903184552 | 12 | 0 | 0.0 | 1.6 | 0.00 | 0.00 | 0.00 | 79 | 1004.7 |
| 20260903184032 | 12 | 0 | 0.0 | 1.6 | 0.00 | 0.00 | 0.00 | 78 | 1004.8 |
| 20260903183534 | 12 | 0 | 0.0 | 1.6 | 0.00 | 0.00 | 0.00 | 78 | 1004.8 |
| 20260903183108 | 12 | 91 | 0.0 | 1.6 | 0.00 | 0.00 | 0.00 | 77 | 1004.8 |
| 20260903182532 | 12 | 0 | 0.0 | 0.0 | 0.00 | 0.00 | 0.00 | 77 | 1004.8 |
| 20260903182033 | 12 | 0 | 0.0 | 0.0 | 0.00 | 0.00 | 0.00 | 76 | 1004.8 |
| 20260903181547 | 12 | 0 | 0.0 | 0.0 | 0.00 | 0.00 | 0.00 | 74 | 1004.9 |
| 20260903181031 | 12 | 0 | 0.0 | 1.6 | 0.00 | 0.00 | 0.00 | 74 | 1004.8 |
| 20260903180532 | 12 | 0 | 0.0 | 3.2 | 0.00 | 0.00 | 0.00 | 73 | 1004.9 |
| 20260903180054 | 12 | 0 | 0.0 | 3.2 | 0.00 | 0.00 | 0.00 | 72 | 1004.9 |
| 20260903175532 | 12 | 0 | 0.0 | 3.2 | 0.00 | 0.00 | 0.00 | 71 | 1005.0 |
| 20260903175034 | 13 | 160 | 0.0 | 3.2 | 0.00 | 0.00 | 0.00 | 70 | 1005.0 |
| 20260903174548 | 13 | 147 | 1.6 | 3.2 | 0.00 | 0.00 | 0.00 | 70 | 1005.0 |
| 20260903174032 | 13 | 176 | 0.0 | 3.2 | 0.00 | 0.00 | 0.00 | 70 | 1004.9 |
| 20260903173531 | 13 | 161 | 0.0 | 1.6 | 0.00 | 0.00 | 0.00 | 69 | 1004.9 |
| 20260903173107 | 13 | 0 | 0.0 | 1.6 | 0.00 | 0.00 | 0.00 | 68 | 1004.9 |
| 20260903172532 | 13 | 0 | 0.0 | 3.2 | 0.00 | 0.00 | 0.00 | 68 | 1004.9 |
| 20260903172031 | 13 | 0 | 0.0 | 6.4 | 0.00 | 0.00 | 0.00 | 66 | 1004.9 |
| 20260903171600 | 13 | 193 | 1.6 | 6.4 | 0.00 | 0.00 | 0.00 | 66 | 1004.9 |
| 20260903171032 | 13 | 161 | 1.6 | 6.4 | 0.00 | 0.00 | 0.00 | 65 | 1004.9 |
| 20260903170533 | 13 | 198 | 0.0 | 3.2 | 0.00 | 0.00 | 0.00 | 64 | 1004.9 |
| 20260903170048 | 13 | 0 | 0.0 | 3.2 | 0.00 | 0.00 | 0.00 | 64 | 1004.9 |
| 20260903165532 | 13 | 186 | 0.0 | 6.4 | 0.00 | 0.00 | 0.00 | 64 | 1005.0 |
| 20260903165033 | 13 | 0 | 0.0 | 6.4 | 0.00 | 0.00 | 0.00 | 63 | 1005.1 |
| 20260903164557 | 13 | 122 | 1.6 | 6.4 | 0.00 | 0.00 | 0.00 | 63 | 1005.1 |
| 20260903164032 | 13 | 209 | 1.6 | 6.4 | 0.00 | 0.00 | 0.00 | 63 | 1005.2 |
| 20260903163531 | 13 | 173 | 3.2 | 9.7 | 0.00 | 0.00 | 0.00 | 63 | 1005.2 |
| 20260903163052 | 14 | 153 | 0.0 | 9.7 | 0.00 | 0.00 | 0.00 | 62 | 1005.2 |
| 20260903162532 | 14 | 157 | 3.2 | 9.7 | 0.00 | 0.00 | 0.00 | 62 | 1005.2 |
| 20260903162031 | 14 | 164 | 1.6 | 9.7 | 0.00 | 0.00 | 0.00 | 62 | 1005.2 |
| 20260903161606 | 14 | 138 | 3.2 | 9.7 | 0.00 | 0.00 | 0.00 | 62 | 1005.3 |
| 20260903161034 | 14 | 155 | 3.2 | 8.0 | 0.00 | 0.00 | 0.00 | 61 | 1005.4 |
| 20260903160533 | 14 | 155 | 3.2 | 12.9 | 0.00 | 0.00 | 0.00 | 62 | 1005.5 |
| 20260903160055 | 14 | 160 | 6.4 | 12.9 | 0.00 | 0.00 | 0.00 | 61 | 1005.3 |
| 20260903155536 | 14 | 211 | 6.4 | 12.9 | 0.00 | 0.00 | 0.00 | 61 | 1005.4 |
| 20260903155031 | 15 | 150 | 3.2 | 11.3 | 0.00 | 0.00 | 0.00 | 62 | 1005.5 |
| 20260903154555 | 15 | 176 | 3.2 | 11.3 | 0.00 | 0.00 | 0.00 | 61 | 1005.5 |
| 20260903154032 | 15 | 152 | 6.4 | 17.7 | 0.00 | 0.00 | 0.00 | 60 | 1005.6 |
| 20260903153530 | 15 | 167 | 8.0 | 17.7 | 0.00 | 0.00 | 0.00 | 59 | 1005.6 |
| 20260903153059 | 15 | 169 | 9.7 | 14.5 | 0.00 | 0.00 | 0.00 | 59 | 1005.7 |
| 20260903152532 | 15 | 165 | 6.4 | 11.3 | 0.00 | 0.00 | 0.00 | 60 | 1005.7 |
| 20260903152032 | 15 | 148 | 4.8 | 11.3 | 0.00 | 0.00 | 0.00 | 60 | 1005.6 |
| 20260903151547 | 15 | 148 | 1.6 | 14.5 | 0.00 | 0.00 | 0.00 | 60 | 1005.5 |
| 20260903151034 | 15 | 153 | 4.8 | 14.5 | 0.00 | 0.00 | 0.00 | 60 | 1005.6 |
| 20260903150534 | 15 | 122 | 3.2 | 14.5 | 0.00 | 0.00 | 0.00 | 61 | 1005.7 |
| 20260903150054 | 15 | 160 | 4.8 | 14.5 | 0.00 | 0.00 | 0.00 | 59 | 1005.7 |
| 20260903145534 | 15 | 150 | 6.4 | 16.1 | 0.00 | 0.00 | 0.00 | 59 | 1005.7 |
| 20260903145033 | 16 | 122 | 4.8 | 16.1 | 0.00 | 0.00 | 0.00 | 59 | 1005.8 |
| 20260903144550 | 16 | 124 | 3.2 | 12.9 | 0.00 | 0.00 | 0.00 | 59 | 1005.8 |
| 20260903144032 | 16 | 170 | 6.4 | 16.1 | 0.00 | 0.00 | 0.00 | 58 | 1005.6 |
| 20260903143532 | 16 | 80 | 6.4 | 17.7 | 0.00 | 0.00 | 0.00 | 59 | 1005.6 |
| 20260903143046 | 16 | 91 | 9.7 | 17.7 | 0.00 | 0.00 | 0.00 | 57 | 1005.7 |
| 20260903142536 | 16 | 97 | 9.7 | 16.1 | 0.00 | 0.00 | 0.00 | 57 | 1005.8 |
| 20260903142032 | 16 | 145 | 6.4 | 14.5 | 0.00 | 0.00 | 0.00 | 57 | 1005.8 |
| 20260903141546 | 16 | 221 | 4.8 | 16.1 | 0.00 | 0.00 | 0.00 | 56 | 1005.7 |
| 20260903141031 | 16 | 69 | 4.8 | 16.1 | 0.00 | 0.00 | 0.00 | 54 | 1005.6 |
| 20260903140534 | 17 | 72 | 8.0 | 16.1 | 0.00 | 0.00 | 0.00 | 54 | 1005.6 |
| 20260903140047 | 17 | 155 | 3.2 | 11.3 | 0.00 | 0.00 | 0.00 | 54 | 1005.7 |
| 20260903135533 | 17 | 167 | 4.8 | 11.3 | 0.00 | 0.00 | 0.00 | 54 | 1005.6 |
| 20260903135031 | 18 | 187 | 4.8 | 14.5 | 0.00 | 0.00 | 0.00 | 52 | 1005.8 |
| 20260903134604 | 18 | 169 | 6.4 | 16.1 | 0.00 | 0.00 | 0.00 | 52 | 1005.6 |
| 20260903134030 | 18 | 101 | 6.4 | 16.1 | 0.00 | 0.00 | 0.00 | 49 | 1005.7 |
| 20260903133532 | 18 | 208 | 9.7 | 16.1 | 0.00 | 0.00 | 0.00 | 51 | 1005.7 |
| 20260903133051 | 18 | 68 | 6.4 | 14.5 | 0.00 | 0.00 | 0.00 | 49 | 1005.7 |
| 20260903132532 | 18 | 92 | 3.2 | 12.9 | 0.00 | 0.00 | 0.00 | 49 | 1005.8 |
| 20260903132031 | 18 | 134 | 4.8 | 11.3 | 0.00 | 0.00 | 0.00 | 51 | 1005.9 |
| 20260903131548 | 18 | 193 | 3.2 | 9.7 | 0.00 | 0.00 | 0.00 | 51 | 1005.9 |
| 20260903131032 | 18 | 117 | 4.8 | 17.7 | 0.00 | 0.00 | 0.00 | 50 | 1006.0 |
| 20260903130533 | 18 | 165 | 3.2 | 17.7 | 0.00 | 0.00 | 0.00 | 50 | 1006.0 |
| 20260903130047 | 18 | 122 | 4.8 | 14.5 | 0.00 | 0.00 | 0.00 | 49 | 1005.9 |
| 20260903125531 | 18 | 175 | 6.4 | 16.1 | 0.00 | 0.00 | 0.00 | 48 | 1006.0 |
| 20260903125032 | 18 | 112 | 6.4 | 16.1 | 0.00 | 0.00 | 0.00 | 49 | 1006.1 |
| 20260903124559 | 18 | 174 | 9.7 | 16.1 | 0.00 | 0.00 | 0.00 | 48 | 1006.2 |
| 20260903124031 | 18 | 180 | 3.2 | 11.3 | 0.00 | 0.00 | 0.00 | 50 | 1006.1 |
| 20260903123532 | 18 | 148 | 4.8 | 14.5 | 0.00 | 0.00 | 0.00 | 51 | 1006.1 |
| 20260903123048 | 17 | 140 | 4.8 | 14.5 | 0.00 | 0.00 | 0.00 | 50 | 1006.2 |
| 20260903122535 | 17 | 162 | 8.0 | 14.5 | 0.00 | 0.00 | 0.00 | 50 | 1006.3 |
| 20260903122032 | 17 | 124 | 4.8 | 12.9 | 0.00 | 0.00 | 0.00 | 51 | 1006.4 |
| 20260903121552 | 17 | 123 | 8.0 | 12.9 | 0.00 | 0.00 | 0.00 | 49 | 1006.5 |
| 20260903121035 | 17 | 155 | 4.8 | 12.9 | 0.00 | 0.00 | 0.00 | 51 | 1006.6 |
| 20260903120531 | 17 | 185 | 4.8 | 12.9 | 0.00 | 0.00 | 0.00 | 50 | 1006.5 |
| 20260903120056 | 17 | 117 | 3.2 | 8.0 | 0.00 | 0.00 | 0.00 | 49 | 1006.5 |
| 20260903115537 | 17 | 240 | 1.6 | 11.3 | 0.00 | 0.00 | 0.00 | 47 | 1006.5 |
| 20260903115031 | 17 | 96 | 3.2 | 11.3 | 0.00 | 0.00 | 0.00 | 49 | 1006.6 |
| 20260903114549 | 17 | 153 | 4.8 | 11.3 | 0.00 | 0.00 | 0.00 | 48 | 1006.7 |
| 20260903114030 | 17 | 120 | 6.4 | 11.3 | 0.00 | 0.00 | 0.00 | 48 | 1006.5 |
| 20260903113533 | 18 | 171 | 4.8 | 12.9 | 0.00 | 0.00 | 0.00 | 46 | 1006.6 |
| 20260903113047 | 17 | 113 | 4.8 | 14.5 | 0.00 | 0.00 | 0.00 | 51 | 1006.6 |
| 20260903112532 | 17 | 0 | 1.6 | 14.5 | 0.00 | 0.00 | 0.00 | 49 | 1006.6 |
| 20260903112033 | 17 | 218 | 6.4 | 14.5 | 0.00 | 0.00 | 0.00 | 49 | 1006.7 |
| 20260903111545 | 17 | 117 | 1.6 | 12.9 | 0.00 | 0.00 | 0.00 | 50 | 1006.8 |
| 20260903111032 | 17 | 184 | 6.4 | 12.9 | 0.00 | 0.00 | 0.00 | 50 | 1006.7 |
| 20260903110532 | 17 | 151 | 4.8 | 12.9 | 0.00 | 0.00 | 0.00 | 51 | 1006.8 |
| 20260903110050 | 17 | 216 | 4.8 | 12.9 | 0.00 | 0.00 | 0.00 | 52 | 1006.8 |
| 20260903105532 | 17 | 134 | 3.2 | 9.7 | 0.00 | 0.00 | 0.00 | 51 | 1006.9 |
| 20260903105033 | 16 | 128 | 4.8 | 11.3 | 0.00 | 0.00 | 0.00 | 52 | 1006.9 |
| 20260903104547 | 16 | 176 | 3.2 | 11.3 | 0.00 | 0.00 | 0.00 | 51 | 1007.0 |
| 20260903104034 | 17 | 136 | 6.4 | 11.3 | 0.00 | 0.00 | 0.00 | 51 | 1007.0 |
| 20260903103535 | 17 | 194 | 4.8 | 14.5 | 0.00 | 0.00 | 0.00 | 53 | 1007.0 |
| 20260903103048 | 17 | 223 | 6.4 | 14.5 | 0.00 | 0.00 | 0.00 | 51 | 1007.0 |
| 20260903102530 | 17 | 196 | 8.0 | 14.5 | 0.00 | 0.00 | 0.00 | 51 | 1007.0 |
| 20260903102032 | 17 | 170 | 3.2 | 6.4 | 0.00 | 0.00 | 0.00 | 52 | 1007.0 |
| 20260903101547 | 17 | 85 | 3.2 | 6.4 | 0.00 | 0.00 | 0.00 | 51 | 1007.1 |
| 20260903101031 | 16 | 114 | 1.6 | 4.8 | 0.00 | 0.00 | 0.00 | 57 | 1007.1 |
| 20260903100532 | 16 | 119 | 1.6 | 3.2 | 0.00 | 0.00 | 0.00 | 55 | 1007.2 |
| 20260903100046 | 16 | 115 | 1.6 | 4.8 | 0.00 | 0.00 | 0.00 | 53 | 1007.3 |
| 20260903095535 | 16 | 103 | 1.6 | 4.8 | 0.00 | 0.00 | 0.00 | 54 | 1007.2 |
| 20260903095031 | 16 | 126 | 1.6 | 6.4 | 0.00 | 0.00 | 0.00 | 55 | 1007.3 |
| 20260903094546 | 16 | 107 | 3.2 | 6.4 | 0.00 | 0.00 | 0.00 | 54 | 1007.3 |
| 20260903094033 | 16 | 146 | 3.2 | 6.4 | 0.00 | 0.00 | 0.00 | 55 | 1007.3 |
| 20260903093532 | 16 | 118 | 3.2 | 8.0 | 0.00 | 0.00 | 0.00 | 54 | 1007.3 |
| 20260903093051 | 16 | 150 | 0.0 | 8.0 | 0.00 | 0.00 | 0.00 | 56 | 1007.4 |
| 20260903092532 | 16 | 228 | 4.8 | 8.0 | 0.00 | 0.00 | 0.00 | 56 | 1007.4 |
| 20260903092031 | 16 | 232 | 1.6 | 4.8 | 0.00 | 0.00 | 0.00 | 58 | 1007.5 |
| 20260903091603 | 15 | 224 | 1.6 | 4.8 | 0.00 | 0.00 | 0.00 | 57 | 1007.5 |
| 20260903091031 | 15 | 242 | 1.6 | 4.8 | 0.00 | 0.00 | 0.00 | 58 | 1007.5 |
| 20260903090531 | 15 | 300 | 1.6 | 8.0 | 0.00 | 0.00 | 0.00 | 60 | 1007.7 |
| 20260903090053 | 15 | 335 | 0.0 | 8.0 | 0.00 | 0.00 | 0.00 | 59 | 1007.7 |
| 20260903085530 | 15 | 153 | 4.8 | 8.0 | 0.00 | 0.00 | 0.00 | 60 | 1007.7 |
| 20260903085032 | 14 | 5 | 1.6 | 6.4 | 0.00 | 0.00 | 0.00 | 62 | 1007.7 |
| 20260903084549 | 14 | 113 | 1.6 | 6.4 | 0.00 | 0.00 | 0.00 | 64 | 1007.7 |
| 20260903084031 | 13 | 233 | 1.6 | 6.4 | 0.00 | 0.00 | 0.00 | 64 | 1007.8 |
| 20260903083531 | 13 | 236 | 1.6 | 4.8 | 0.00 | 0.00 | 0.00 | 64 | 1007.9 |
| 20260903083050 | 13 | 167 | 0.0 | 1.6 | 0.00 | 0.00 | 0.00 | 68 | 1007.8 |
| 20260903082531 | 12 | 0 | 0.0 | 1.6 | 0.00 | 0.00 | 0.00 | 68 | 1007.9 |
| 20260903082031 | 12 | 130 | 0.0 | 1.6 | 0.00 | 0.00 | 0.00 | 70 | 1008.0 |
| 20260903081555 | 12 | 0 | 0.0 | 1.6 | 0.00 | 0.00 | 0.00 | 72 | 1008.0 |
| 20260903081034 | 12 | 0 | 0.0 | 1.6 | 0.00 | 0.00 | 0.00 | 70 | 1007.9 |
| 20260903080535 | 12 | 0 | 0.0 | 3.2 | 0.00 | 0.00 | 0.00 | 70 | 1008.0 |
| 20260903080059 | 12 | 0 | 0.0 | 4.8 | 0.00 | 0.00 | 0.00 | 69 | 1008.0 |
| 20260903075535 | 12 | 95 | 1.6 | 4.8 | 0.00 | 0.00 | 0.00 | 69 | 1008.0 |
| 20260903075037 | 12 | 123 | 3.2 | 4.8 | 0.00 | 0.00 | 0.00 | 70 | 1008.0 |
| 20260903074548 | 12 | 122 | 1.6 | 4.8 | 0.00 | 0.00 | 0.00 | 72 | 1008.1 |
| 20260903074036 | 11 | 115 | 1.6 | 3.2 | 0.00 | 0.00 | 0.00 | 72 | 1008.0 |
| 20260903073536 | 11 | 177 | 0.0 | 3.2 | 0.00 | 0.00 | 0.00 | 75 | 1008.0 |
| 20260903073112 | 10 | 167 | 0.0 | 0.0 | 0.00 | 0.00 | 0.00 | 75 | 1008.2 |
| 20260903072535 | 10 | 0 | 0.0 | 1.6 | 0.00 | 0.00 | 0.00 | 76 | 1008.2 |
| 20260903072036 | 10 | 0 | 0.0 | 3.2 | 0.00 | 0.00 | 0.00 | 76 | 1008.2 |
| 20260903071551 | 9 | 0 | 1.6 | 4.8 | 0.00 | 0.00 | 0.00 | 77 | 1008.2 |
| 20260903071034 | 9 | 127 | 1.6 | 4.8 | 0.00 | 0.00 | 0.00 | 77 | 1008.2 |
| 20260903070538 | 8 | 104 | 3.2 | 4.8 | 0.00 | 0.00 | 0.00 | 79 | 1008.2 |
| 20260903070048 | 8 | 129 | 1.6 | 4.8 | 0.00 | 0.00 | 0.00 | 81 | 1008.3 |
| 20260903065535 | 8 | 173 | 0.0 | 3.2 | 0.00 | 0.00 | 0.00 | 82 | 1008.4 |
| 20260903065035 | 8 | 0 | 1.6 | 4.8 | 0.00 | 0.00 | 0.00 | 82 | 1008.5 |
| 20260903064554 | 7 | 228 | 0.0 | 4.8 | 0.00 | 0.00 | 0.00 | 83 | 1008.3 |
| 20260903064034 | 7 | 0 | 0.0 | 3.2 | 0.00 | 0.00 | 0.00 | 85 | 1008.3 |
| 20260903063535 | 7 | 0 | 0.0 | 3.2 | 0.00 | 0.00 | 0.00 | 86 | 1008.3 |
| 20260903063104 | 6 | 145 | 0.0 | 1.6 | 0.00 | 0.00 | 0.00 | 87 | 1008.5 |
| 20260903062531 | 6 | 0 | 0.0 | 0.0 | 0.00 | 0.00 | 0.00 | 88 | 1008.5 |
| 20260903062035 | 6 | 0 | 0.0 | 0.0 | 0.00 | 0.00 | 0.00 | 88 | 1008.7 |
| 20260903061552 | 6 | 0 | 0.0 | 0.0 | 0.00 | 0.00 | 0.00 | 88 | 1008.6 |
| 20260903061034 | 6 | 0 | 0.0 | 0.0 | 0.00 | 0.00 | 0.00 | 88 | 1008.6 |
| 20260903060535 | 5 | 0 | 0.0 | 1.6 | 0.00 | 0.00 | 0.00 | 87 | 1008.6 |
| 20260903060049 | 5 | 0 | 0.0 | 1.6 | 0.00 | 0.00 | 0.00 | 87 | 1008.7 |
| 20260903055536 | 5 | 0 | 0.0 | 1.6 | 0.00 | 0.00 | 0.00 | 86 | 1008.7 |
| 20260903055034 | 5 | 0 | 0.0 | 3.2 | 0.00 | 0.00 | 0.00 | 86 | 1008.7 |
| 20260903054553 | 5 | 0 | 0.0 | 3.2 | 0.00 | 0.00 | 0.00 | 86 | 1008.7 |
| 20260903054037 | 5 | 213 | 0.0 | 1.6 | 0.00 | 0.00 | 0.00 | 86 | 1008.7 |
| 20260903053536 | 5 | 0 | 0.0 | 1.6 | 0.00 | 0.00 | 0.00 | 86 | 1008.8 |
| 20260903053049 | 5 | 153 | 0.0 | 1.6 | 0.00 | 0.00 | 0.00 | 87 | 1008.8 |
| 20260903052535 | 5 | 0 | 0.0 | 1.6 | 0.00 | 0.00 | 0.00 | 87 | 1008.8 |
| 20260903052035 | 5 | 0 | 0.0 | 3.2 | 0.00 | 0.00 | 0.00 | 87 | 1008.9 |
| 20260903051546 | 5 | 0 | 0.0 | 3.2 | 0.00 | 0.00 | 0.00 | 87 | 1008.8 |
| 20260903051038 | 4 | 0 | 0.0 | 3.2 | 0.00 | 0.00 | 0.00 | 88 | 1008.8 |
| 20260903050537 | 4 | 0 | 0.0 | 0.0 | 0.00 | 0.00 | 0.00 | 88 | 1008.8 |
| 20260903050055 | 4 | 0 | 0.0 | 0.0 | 0.00 | 0.00 | 0.00 | 87 | 1008.8 |
| 20260903045535 | 4 | 0 | 0.0 | 0.0 | 0.00 | 0.00 | 0.00 | 87 | 1008.8 |
| 20260903045037 | 5 | 0 | 0.0 | 1.6 | 0.00 | 0.00 | 0.00 | 88 | 1008.9 |
| 20260903044549 | 4 | 0 | 0.0 | 1.6 | 0.00 | 0.00 | 0.00 | 88 | 1008.8 |
| 20260903044037 | 4 | 0 | 0.0 | 0.0 | 0.00 | 0.00 | 0.00 | 88 | 1008.8 |
| 20260903043534 | 4 | 0 | 0.0 | 1.6 | 0.00 | 0.00 | 0.00 | 88 | 1008.8 |
| 20260903043101 | 4 | 0 | 0.0 | 3.2 | 0.00 | 0.00 | 0.00 | 88 | 1008.7 |
| 20260903042535 | 4 | 92 | 1.6 | 3.2 | 0.00 | 0.00 | 0.00 | 88 | 1008.7 |
| 20260903042035 | 4 | 0 | 0.0 | 3.2 | 0.00 | 0.00 | 0.00 | 87 | 1008.8 |
| 20260903041555 | 4 | 0 | 0.0 | 1.6 | 0.00 | 0.00 | 0.00 | 87 | 1008.9 |
| 20260903041034 | 4 | 0 | 0.0 | 3.2 | 0.00 | 0.00 | 0.00 | 86 | 1008.8 |
| 20260903040534 | 4 | 113 | 0.0 | 3.2 | 0.00 | 0.00 | 0.00 | 86 | 1009.0 |
| 20260903040052 | 5 | 103 | 0.0 | 3.2 | 0.00 | 0.00 | 0.00 | 85 | 1008.9 |
| 20260903035535 | 5 | 286 | 0.0 | 3.2 | 0.00 | 0.00 | 0.00 | 84 | 1008.7 |
| 20260903035035 | 5 | 0 | 0.0 | 1.6 | 0.00 | 0.00 | 0.00 | 83 | 1008.8 |
| 20260903034559 | 5 | 0 | 0.0 | 3.2 | 0.00 | 0.00 | 0.00 | 84 | 1008.8 |
| 20260903034035 | 5 | 97 | 1.6 | 3.2 | 0.00 | 0.00 | 0.00 | 84 | 1008.8 |
| 20260903033534 | 5 | 0 | 0.0 | 1.6 | 0.00 | 0.00 | 0.00 | 84 | 1008.8 |
| 20260903033058 | 5 | 0 | 0.0 | 3.2 | 0.00 | 0.00 | 0.00 | 84 | 1008.6 |
| 20260903032535 | 5 | 0 | 0.0 | 3.2 | 0.00 | 0.00 | 0.00 | 86 | 1008.6 |
| 20260903032037 | 5 | 0 | 0.0 | 1.6 | 0.00 | 0.00 | 0.00 | 86 | 1008.7 |
| 20260903031554 | 5 | 0 | 0.0 | 4.8 | 0.00 | 0.00 | 0.00 | 85 | 1008.7 |
| 20260903031034 | 5 | 0 | 0.0 | 4.8 | 0.00 | 0.00 | 0.00 | 85 | 1008.8 |
| 20260903030533 | 5 | 88 | 1.6 | 3.2 | 0.00 | 0.00 | 0.00 | 85 | 1008.8 |
| 20260903030103 | 5 | 0 | 1.6 | 3.2 | 0.00 | 0.00 | 0.00 | 84 | 1008.9 |
| 20260903025535 | 5 | 293 | 1.6 | 3.2 | 0.00 | 0.00 | 0.00 | 82 | 1008.8 |
| 20260903025035 | 5 | 0 | 0.0 | 1.6 | 0.00 | 0.00 | 0.00 | 82 | 1008.8 |
| 20260903024554 | 5 | 328 | 0.0 | 1.6 | 0.00 | 0.00 | 0.00 | 82 | 1008.7 |
| 20260903024034 | 5 | 0 | 0.0 | 0.0 | 0.00 | 0.00 | 0.00 | 83 | 1008.8 |
| 20260903023535 | 6 | 0 | 0.0 | 1.6 | 0.00 | 0.00 | 0.00 | 82 | 1008.8 |
| 20260903023107 | 6 | 0 | 0.0 | 1.6 | 0.00 | 0.00 | 0.00 | 83 | 1008.9 |
| 20260903022536 | 6 | 0 | 0.0 | 0.0 | 0.00 | 0.00 | 0.00 | 83 | 1008.9 |
| 20260903022038 | 6 | 0 | 0.0 | 1.6 | 0.00 | 0.00 | 0.00 | 82 | 1009.0 |
| 20260903021556 | 6 | 0 | 0.0 | 1.6 | 0.00 | 0.00 | 0.00 | 81 | 1009.0 |
| 20260903021035 | 6 | 0 | 0.0 | 1.6 | 0.00 | 0.00 | 0.00 | 81 | 1008.9 |
| 20260903020534 | 6 | 0 | 0.0 | 1.6 | 0.00 | 0.00 | 0.00 | 81 | 1008.9 |
| 20260903020054 | 6 | 0 | 0.0 | 1.6 | 0.00 | 0.00 | 0.00 | 81 | 1009.0 |
| 20260903015534 | 6 | 0 | 0.0 | 1.6 | 0.00 | 0.00 | 0.00 | 80 | 1009.1 |
| 20260903015035 | 6 | 0 | 0.0 | 1.6 | 0.00 | 0.00 | 0.00 | 80 | 1009.0 |
| 20260903014555 | 6 | 0 | 0.0 | 1.6 | 0.00 | 0.00 | 0.00 | 79 | 1009.1 |
| 20260903014038 | 6 | 0 | 0.0 | 1.6 | 0.00 | 0.00 | 0.00 | 78 | 1009.1 |
| 20260903013538 | 6 | 0 | 0.0 | 1.6 | 0.00 | 0.00 | 0.00 | 78 | 1009.0 |
| 20260903013050 | 7 | 0 | 0.0 | 0.0 | 0.00 | 0.00 | 0.00 | 77 | 1009.1 |
| 20260903012539 | 7 | 0 | 0.0 | 0.0 | 0.00 | 0.00 | 0.00 | 76 | 1009.0 |
| 20260903012034 | 7 | 0 | 0.0 | 0.0 | 0.00 | 0.00 | 0.00 | 76 | 1009.1 |
| 20260903011545 | 7 | 0 | 0.0 | 1.6 | 0.00 | 0.00 | 0.00 | 76 | 1009.0 |
| 20260903011035 | 7 | 0 | 0.0 | 1.6 | 0.00 | 0.00 | 0.00 | 76 | 1009.2 |
| 20260903010534 | 7 | 0 | 0.0 | 3.2 | 0.00 | 0.00 | 0.00 | 75 | 1009.2 |
| 20260903010051 | 7 | 0 | 1.6 | 3.2 | 0.00 | 0.00 | 0.00 | 75 | 1009.2 |
| 20260903005538 | 7 | 105 | 0.0 | 1.6 | 0.00 | 0.00 | 0.00 | 75 | 1009.1 |
| 20260903005036 | 7 | 0 | 0.0 | 1.6 | 0.00 | 0.00 | 0.00 | 75 | 1009.3 |
| 20260903004552 | 7 | 336 | 0.0 | 1.6 | 0.00 | 0.00 | 0.00 | 75 | 1009.3 |
| 20260903004036 | 7 | 0 | 0.0 | 4.8 | 0.00 | 0.00 | 0.00 | 74 | 1009.2 |
| 20260903003537 | 8 | 0 | 0.0 | 6.4 | 0.00 | 0.00 | 0.00 | 72 | 1009.2 |
| 20260903003055 | 8 | 227 | 1.6 | 6.4 | 0.00 | 0.00 | 0.00 | 72 | 1009.3 |
| 20260903002535 | 8 | 0 | 1.6 | 6.4 | 0.00 | 0.00 | 0.00 | 71 | 1009.1 |
| 20260903002035 | 8 | 0 | 0.0 | 3.2 | 0.00 | 0.00 | 0.00 | 71 | 1009.2 |
| 20260903001550 | 8 | 0 | 0.0 | 3.2 | 0.00 | 0.00 | 0.00 | 72 | 1009.3 |
| 20260903001035 | 8 | 0 | 0.0 | 3.2 | 0.00 | 0.00 | 0.00 | 70 | 1009.1 |
| 20260903000535 | 8 | 131 | 0.0 | 3.2 | 0.00 | 0.00 | 0.00 | 69 | 1009.1 |
| 20260903000057 | 8 | 0 | 0.0 | 3.2 | 0.00 | 0.00 | 0.00 | 69 | 1009.0 |
| 20260902235535 | 9 | 248 | 0.0 | 8.0 | 0.00 | 0.00 | 0.00 | 67 | 1009.1 |
| 20260902235035 | 9 | 115 | 1.6 | 11.3 | 0.00 | 0.00 | 0.00 | 66 | 1009.1 |
| 20260902234548 | 9 | 88 | 1.6 | 11.3 | 0.00 | 0.00 | 0.00 | 67 | 1008.9 |
| 20260902234034 | 9 | 319 | 6.4 | 11.3 | 0.00 | 0.00 | 0.00 | 67 | 1008.9 |
| 20260902233534 | 9 | 231 | 1.6 | 9.7 | 0.00 | 0.00 | 0.00 | 67 | 1009.0 |
| 20260902233101 | 8 | 0 | 1.6 | 6.4 | 0.00 | 0.00 | 0.00 | 69 | 1008.9 |
| 20260902232534 | 8 | 0 | 1.6 | 11.3 | 0.00 | 0.00 | 0.00 | 69 | 1008.9 |
| 20260902232035 | 8 | 295 | 4.8 | 11.3 | 0.00 | 0.00 | 0.00 | 69 | 1008.9 |
| 20260902231549 | 9 | 207 | 1.6 | 12.9 | 0.00 | 0.00 | 0.00 | 68 | 1009.0 |
| 20260902231035 | 10 | 245 | 6.4 | 12.9 | 0.00 | 0.00 | 0.00 | 65 | 1009.0 |
| 20260902230537 | 10 | 282 | 6.4 | 11.3 | 0.00 | 0.00 | 0.00 | 63 | 1009.1 |
| 20260902230104 | 10 | 250 | 4.8 | 11.3 | 0.00 | 0.00 | 0.00 | 64 | 1009.1 |
| 20260902225536 | 10 | 245 | 6.4 | 9.7 | 0.00 | 0.00 | 0.00 | 66 | 1009.1 |
| 20260902225123 | 9 | 311 | 3.2 | 8.0 | 0.00 | 0.00 | 0.00 | 67 | 1009.2 |
| 20260902224556 | 9 | 323 | 1.6 | 3.2 | 0.00 | 0.00 | 0.00 | 67 | 1009.2 |
| 20260902224034 | 10 | 283 | 1.6 | 3.2 | 0.00 | 0.00 | 0.00 | 66 | 1009.3 |
| 20260902223534 | 10 | 8 | 0.0 | 8.0 | 0.00 | 0.00 | 0.00 | 65 | 1009.3 |
| 20260902223103 | 10 | 0 | 0.0 | 8.0 | 0.00 | 0.00 | 0.00 | 63 | 1009.2 |
| 20260902222534 | 11 | 292 | 3.2 | 8.0 | 0.00 | 0.00 | 0.00 | 63 | 1009.3 |
| 20260902222034 | 11 | 82 | 1.6 | 6.4 | 0.00 | 0.00 | 0.00 | 62 | 1009.3 |
| 20260902221556 | 11 | 271 | 0.0 | 33.8 | 0.00 | 0.00 | 0.00 | 61 | 1009.3 |
| 20260902221036 | 11 | 231 | 4.8 | 33.8 | 0.00 | 0.00 | 0.00 | 61 | 1009.2 |
| 20260902220533 | 10 | 221 | 3.2 | 12.9 | 0.00 | 0.00 | 0.00 | 62 | 1009.2 |
| 20260902220054 | 10 | 203 | 0.0 | 8.0 | 0.00 | 0.00 | 0.00 | 63 | 1009.2 |
| 20260902215531 | 10 | 212 | 4.8 | 11.3 | 0.00 | 0.00 | 0.00 | 63 | 1009.1 |
| 20260902215032 | 10 | 246 | 4.8 | 11.3 | 0.00 | 0.00 | 0.00 | 62 | 1009.1 |
| 20260902214549 | 10 | 255 | 4.8 | 9.7 | 0.00 | 0.00 | 0.00 | 62 | 1009.1 |
| 20260902214032 | 10 | 324 | 4.8 | 11.3 | 0.00 | 0.00 | 0.00 | 62 | 1009.0 |
| 20260902213534 | 10 | 0 | 0.0 | 11.3 | 0.00 | 0.00 | 0.00 | 62 | 1009.1 |
| 20260902213045 | 10 | 281 | 6.4 | 11.3 | 0.00 | 0.00 | 0.00 | 63 | 1009.2 |
| 20260902212533 | 10 | 0 | 0.0 | 6.4 | 0.00 | 0.00 | 0.00 | 63 | 1009.1 |
| 20260902212033 | 11 | 0 | 1.6 | 6.4 | 0.00 | 0.00 | 0.00 | 62 | 1009.1 |
| 20260902211555 | 11 | 82 | 1.6 | 12.9 | 0.00 | 0.00 | 0.00 | 63 | 1009.0 |
| 20260902211032 | 11 | 95 | 3.2 | 12.9 | 0.00 | 0.00 | 0.00 | 63 | 1009.0 |
| 20260902210532 | 10 | 118 | 6.4 | 12.9 | 0.00 | 0.00 | 0.00 | 64 | 1009.0 |
| 20260902210048 | 10 | 1 | 1.6 | 9.7 | 0.00 | 0.00 | 0.00 | 66 | 1008.9 |
| 20260902205531 | 11 | 80 | 3.2 | 9.7 | 0.00 | 0.00 | 0.00 | 63 | 1008.8 |
| 20260902205035 | 11 | 87 | 0.0 | 14.5 | 0.00 | 0.00 | 0.00 | 61 | 1008.8 |
| 20260902204621 | 11 | 18 | 6.4 | 14.5 | 0.00 | 0.00 | 0.00 | 60 | 1008.8 |
| 20260902204034 | 11 | 309 | 1.6 | 6.4 | 0.00 | 0.00 | 0.00 | 61 | 1008.9 |
| 20260902203534 | 11 | 280 | 1.6 | 9.7 | 0.00 | 0.00 | 0.00 | 60 | 1009.1 |
| 20260902203055 | 11 | 355 | 0.0 | 9.7 | 0.00 | 0.00 | 0.00 | 62 | 1009.2 |